Pierceville, KS

12:02 AM CDT on August 26, 2016 (GMT -0500)
Garden City Regional

Weather History for KGCK - April, 2013

Change the Weather History Date:

Friday, April 12, 2013

  Actual Average Record
Temperature  
Mean Temperature 46 °F 52 °F  
Max Temperature 65 °F 66 °F 91 °F (1972)
Min Temperature 27 °F 37 °F 10 °F (1997)
Degree Days  
Heating Degree Days 19 14  
Month to date heating degree days 221 184  
Since 1 July heating degree days 4771 4872  
Cooling Degree Days 0 0  
Month to date cooling degree days 0 0  
Year to date cooling degree days 0 0  
Moisture  
Dew Point 29 °F    
Average Humidity 60    
Maximum Humidity 92    
Minimum Humidity 27    
Precipitation  
Precipitation 0.02 in 0.05 in 0.95 in (1955)
Month to date precipitation 0.03 0.61  
Year to date precipitation 0.45 2.95  
Sea Level Pressure  
Sea Level Pressure 29.94 in    
Wind  
Wind Speed 8 mph (North)    
Max Wind Speed 29 mph    
Max Gust Speed 35 mph    
Visibility 10 miles    
Events Rain    
T = Trace of Precipitation, MM = Missing Value Source: NWS Daily Summary

Daily Weather History Graph

Daily Weather History Graph

Search for Another Location

Airport or City:

Trip Planner

Search our weather history database for the weather conditions in past years. The results will help you decide how hot, cold, wet, or windy it might be!

Date:

Astronomy

Apr. 12, 2013 Rise Set
Actual Time 7:11 AM CDT 8:16 PM CDT
Civil Twilight 6:44 AM CDT 8:43 PM CDT
Nautical Twilight 6:12 AM CDT 9:15 PM CDT
Astronomical Twilight 5:38 AM CDT 9:49 PM CDT
Moon 8:24 AM CDT (4/12) 10:46 PM CDT (4/12)
Length of Visible Light 13h 58m
Length of Day
13h 04m
Waxing Crescent, 5% of the Moon is Illuminated
Apr 12
Waxing Crescent
Apr 18
First Quarter
Apr 25
Full
May 2
Last Quarter
May 9
New

Hourly Weather History & Observations

Time (CDT) Temp. Windchill Dew Point Humidity Pressure Visibility Wind Dir Wind Speed Gust Speed Precip Events Conditions
12:54 AM 37.0 °F 30.4 °F 23.0 °F 57% 29.91 in 10.0 mi NW 9.2 mph - N/A   Clear
1:54 AM 33.1 °F 26.1 °F 25.0 °F 72% 29.93 in 10.0 mi NNW 8.1 mph - N/A   Mostly Cloudy
2:54 AM 33.1 °F 26.1 °F 25.0 °F 72% 29.91 in 10.0 mi NNW 8.1 mph - N/A   Overcast
3:54 AM 30.9 °F 24.3 °F 24.1 °F 76% 29.93 in 10.0 mi NW 6.9 mph - N/A   Mostly Cloudy
4:54 AM 28.9 °F 21.9 °F 24.1 °F 82% 29.93 in 10.0 mi North 6.9 mph - N/A   Partly Cloudy
5:54 AM 28.9 °F 21.9 °F 24.1 °F 82% 29.94 in 10.0 mi WNW 6.9 mph - N/A   Scattered Clouds
6:54 AM 28.9 °F 21.1 °F 24.1 °F 82% 29.94 in 10.0 mi NNW 8.1 mph - N/A   Partly Cloudy
7:54 AM 32.0 °F 25.6 °F 27.0 °F 82% 29.95 in 10.0 mi NNE 6.9 mph - N/A   Partly Cloudy
8:54 AM 37.9 °F - 28.0 °F 68% 29.97 in 10.0 mi Calm Calm - N/A   Clear
9:54 AM 43.0 °F 40.3 °F 30.0 °F 60% 29.99 in 10.0 mi Variable 4.6 mph - N/A   Clear
10:54 AM 48.0 °F - 30.9 °F 52% 29.98 in 10.0 mi North 5.8 mph - N/A   Partly Cloudy
11:54 AM 52.0 °F - 28.9 °F 41% 29.98 in 10.0 mi WNW 4.6 mph - N/A   Mostly Cloudy
12:54 PM 53.1 °F - 28.0 °F 38% 29.96 in 10.0 mi Calm Calm - N/A   Mostly Cloudy
1:54 PM 57.9 °F - 28.0 °F 32% 29.94 in 10.0 mi Variable 3.5 mph - N/A   Clear
2:54 PM 60.1 °F - 27.0 °F 28% 29.93 in 10.0 mi Calm Calm - N/A   Partly Cloudy
3:54 PM 60.1 °F - 27.0 °F 28% 29.91 in 10.0 mi South 8.1 mph - N/A   Overcast
4:54 PM 62.1 °F - 28.0 °F 28% 29.88 in 10.0 mi South 6.9 mph 20.7 mph N/A   Mostly Cloudy
5:54 PM 63.0 °F - 28.0 °F 27% 29.86 in 10.0 mi South 11.5 mph 21.9 mph N/A   Partly Cloudy
6:54 PM 63.0 °F - 28.0 °F 27% 29.84 in 10.0 mi South 12.7 mph - N/A   Clear
7:54 PM 59.0 °F - 28.0 °F 31% 29.87 in 10.0 mi SSE 8.1 mph - N/A   Overcast
8:54 PM 48.0 °F - 43.0 °F 83% 29.97 in 8.0 mi NNE 24.2 mph 34.5 mph 0.00 in Rain Light Rain
9:54 PM 44.1 °F 36.5 °F 41.0 °F 89% 29.98 in 10.0 mi East 17.3 mph - 0.02 in   Scattered Clouds
10:54 PM 42.1 °F 34.9 °F 39.0 °F 89% 29.99 in 10.0 mi ENE 13.8 mph - N/A   Clear
11:54 PM 39.0 °F 32.3 °F 37.0 °F 93% 30.01 in 10.0 mi ENE 10.4 mph - N/A   Clear